sat.trackr.live / text

‹ back to catalog

ONEWEB-0683

NORAD 56719 · 2023-068K

PAYLOAD ACTIVE UNKNOWN

§ Identity

Operator
Country
UK
Launch date
2023-05-20
Launch site
AFWTR
Launch vehicle
Mass (kg)
RCS (m²)

Purposes: comms

External: N2YO · Heavens-Above · Gunter

§ Orbital elements

Epoch: 2026-05-25T02:03:59.241312Z

Period
109.46 min
Inclination
87.9001°
Eccentricity
0.0001970
Mean motion
13.15547384 rev/d
Perigee alt
1,200.3 km
Apogee alt
1,203.3 km
Semi-major
7,579.9 km
B*
5.1613e-4
RAAN
263.7950°
Arg perigee
108.4841°
Mean anomaly
251.6503°
Rev number
14,638

§ Raw data

ONEWEB-06831 56719U 23068K   26145.08610233  .00000207  00000+0  51613-3 0  99952 56719  87.9001 263.7950 0001970 108.4841 251.6503 13.15547384146385

JSON: /api/v1/satellites/56719 · /tle

For live sub-satellite position, see the globe view (requires WebGL).

§ Visibility from observer

Set your observer location to see the next 7 days of passes ≥ 10°. The values pass through the URL so the page stays shareable.

No JS? Fill the form by hand. The geolocation button needs JavaScript.